Other Public Products
Issued by NWS Charleston, SC

Current Version | Previous Version | Graphics & Text | Print | Product List | Glossary On
Versions: 1 2 3 4 5 6 7 8 9 10 11 12 13 14 15 16 17 18 19 20 21 22 23 24 25 26 27 28 29 30 31 32 33 34 35 36 37 38 39 40 41 42 43 44 45 46 47 48 49 50
744 FPUS82 KCHS 200227 OPUCHS TEST...KCHS/KSAV Gateway Observations...TEST National Weather Service Charleston SC 1000 PM EDT SAT AUG 19 2017 NOTE: "fair" indicates few or no clouds below 12,000 feet with no significant weather and/or obstructions to visibility. SCZ050-WAZ558-NCZ071-TXZ119-213-PAZ071-DCZ001-FLZ074-172-MI076- NYZ176-178-MAZ016-IL014-TNZ027-NJZ106-GAZ044-MD014-200300- ...Gateway Observations for Charleston International... CITY SKY/WX TMP DP RH WIND PRES REMARKS Chas Airport PTCLDY 82 79 90 SW7 29.96R HX 92 Seattle PTSUNNY 74 50 42 N9 30.15F Charlotte PTCLDY 78 69 73 N5 30.00R Dallas DFW MOCLDY 91 70 49 SE8 29.90R HX 96 Dallas Love MOCLDY 92 70 48 SE12 29.91R HX 97 Philladelphia PTCLDY 81 68 64 SW6 29.91R Wash National CLOUDY 79 65 62 NW17 29.99R Baltimore MOCLDY 75 62 64 NW17G30 29.97R Miami CLOUDY 83 76 79 SE13 29.99R HX 91 Detroit PTCLDY 73 57 57 NW3 29.98R Newark PTCLDY 80 65 59 SW9 29.88R Laguardia PTCLDY 83 65 54 W9 29.87R J F K PTCLDY 79 69 71 SW8 29.89R Boston Logan MOCLDY 67 65 93 CALM 29.83R Ft. Lauderdale CLOUDY 84 76 76 E15 29.98R HX 93 Chicago O`Hare CLEAR 73 53 49 SE6 29.96R Chicago Midway CLEAR 76 55 48 SE6 29.96R Houston Bush PTCLDY 88 75 65 S6 29.94R HX 97 Houston Hobby PTCLDY 87 73 62 S7 29.95R HX 94 Nashville PTCLDY 81 69 67 S5 29.99R Atlanta PTCLDY 80 68 66 W5 30.02R $$ GAZ044-118-TXZ119-213-NCZ071-DCZ001-MDZ014-506-PAZ021-071-NJZ106- NYZ176-178-MAZ106-OHZ011-021-055-MIZ076-KYZ091-ILZ014-INZ047- MNZ060-ONZ431-200300- ...Gateway Observations for Savannah International... CITY SKY/WX TMP DP RH WIND PRES REMARKS Savannah Arpt MOCLDY 83 78 85 S6 29.97R HX 93 Atlanta PTCLDY 80 68 66 W5 30.02R Charlotte PTCLDY 78 69 73 N5 30.00R Dallas DFW MOCLDY 91 70 49 SE8 29.90R HX 96 Houston Bush PTCLDY 88 75 65 S6 29.94R HX 97 Wash National CLOUDY 79 65 62 NW17 29.99R Wash Dulles MOCLDY 71 64 78 NE6 29.99R Baltimore MOCLDY 75 62 64 NW17G30 29.97R Philadelphia PTCLDY 81 68 64 SW6 29.91R Newark PTCLDY 80 65 59 SW9 29.88R Laguardia PTCLDY 83 65 54 W9 29.87R J F K PTCLDY 79 69 71 SW8 29.89R Boston MOCLDY 67 65 93 CALM 29.83R Pittsburg CLEAR 65 64 97 S3 30.00R Akron CLEAR 69 58 67 N5 30.01R Cleveland CLEAR 72 61 68 E3 30.01R Cincinnati PTCLDY 76 69 79 W3 29.98R Columbus CLEAR 69 65 86 NE3 30.00R Detroit PTCLDY 73 57 57 NW3 29.98R Chicago O`Hare CLEAR 73 53 49 SE6 29.96R Minneapolis PTCLDY 76 62 62 VRB6 29.88S Indianapolis PTCLDY 78 63 59 NE12 29.96R Toronto Canada PTCLDY 64 55 72 W8 29.92R $$

USA.gov is the U.S. government's official web portal to all federal, state and local government web resources and services.